GW6092 Weather Reports


time (UTC)temp
C
wind
direction
speed
KPH
gust
KPH
rain 1hr
cm
rain 24hr
cm
rain mn
cm
humidity
%
barometer
mb
20260507085511 11 26 0.0 0.0 0.00 0.30 0.30 95 1010.5
20260507085008 11 24 0.0 0.0 0.00 0.30 0.30 95 1010.4
20260507084504 11 26 0.0 0.0 0.00 0.30 0.30 95 1010.4
20260507084001 11 26 0.0 0.0 0.00 0.30 0.30 95 1010.3
20260507083457 11 26 0.0 0.0 0.00 0.30 0.30 95 1010.2
20260507082954 11 29 0.0 0.0 0.00 0.30 0.30 95 1010.1
20260507082450 11 29 0.0 0.0 0.00 0.30 0.30 94 1010.0
20260507081947 11 29 0.0 0.0 0.00 0.30 0.30 94 1009.8
20260507081444 11 29 0.0 0.0 0.18 0.30 0.30 94 1009.8
20260507080941 11 34 0.0 0.0 0.18 0.30 0.30 94 1009.9
20260507080436 11 36 0.0 0.0 0.00 0.28 0.28 94 1009.7
20260507075931 11 24 0.0 0.0 0.00 0.28 0.28 93 1009.7
20260507075428 11 25 0.0 0.0 0.00 0.28 0.28 93 1009.7
20260507074925 11 27 0.0 0.0 0.00 0.28 0.28 93 1009.5
20260507074422 11 27 0.0 0.0 0.00 0.28 0.28 93 1009.7
20260507073920 11 32 0.0 0.0 0.00 0.28 0.28 93 1009.5
20260507073416 11 16 0.0 1.6 0.00 0.28 0.28 93 1009.7
20260507072913 12 13 0.0 1.6 0.00 0.28 0.28 93 1009.7
20260507072411 12 32 0.0 0.0 0.00 0.28 0.28 93 1009.6
20260507071908 12 19 1.6 3.2 0.00 0.28 0.28 93 1009.6
20260507071405 12 19 0.0 1.6 0.00 0.28 0.28 93 1009.6
20260507070900 12 20 0.0 0.0 0.00 0.28 0.28 93 1010.0
20260507070358 12 24 0.0 0.0 0.00 0.28 0.28 93 1010.0
20260507065855 12 39 0.0 1.6 0.00 0.28 0.28 93 1010.0
20260507065351 12 23 0.0 0.0 0.00 0.28 0.28 94 1009.8
20260507064848 12 22 0.0 0.0 0.00 0.28 0.28 94 1010.0
20260507064347 12 15 1.6 1.6 0.00 0.28 0.28 94 1010.0
20260507063845 12 22 0.0 0.0 0.00 0.28 0.28 94 1009.7
20260507063341 12 25 0.0 0.0 0.00 0.28 0.28 94 1009.6
20260507062838 12 22 0.0 1.6 0.00 0.28 0.28 94 1009.6
20260507062335 12 30 0.0 0.0 0.00 0.28 0.28 94 1009.6
20260507061833 12 24 0.0 0.0 0.00 0.28 0.28 94 1009.8
20260507061331 13 13 3.2 3.2 0.00 0.28 0.28 94 1009.6
20260507060829 13 32 0.0 0.0 0.00 0.28 0.28 94 1009.8
20260507060325 13 25 0.0 1.6 0.00 0.28 0.28 94 1009.7
20260507055822 13 27 0.0 0.0 0.00 0.28 0.28 94 1009.6
20260507055317 13 17 1.6 1.6 0.00 0.28 0.28 94 1009.8
20260507054814 13 26 0.0 0.0 0.00 0.28 0.28 94 1009.9
20260507054310 13 24 0.0 0.0 0.13 0.28 0.28 93 1009.7
20260507053808 13 32 0.0 1.6 0.13 0.28 0.28 93 1009.9
20260507053305 13 28 0.0 0.0 0.00 0.25 0.25 93 1010.0
20260507052804 13 31 0.0 0.0 0.00 0.25 0.25 93 1009.8
20260507052300 13 29 0.0 0.0 0.00 0.25 0.25 92 1009.9
20260507051758 13 31 0.0 0.0 0.00 0.25 0.25 92 1009.6
20260507051255 13 24 0.0 1.6 0.00 0.25 0.25 91 1009.9
20260507050752 13 31 0.0 0.0 0.30 0.25 0.25 91 1009.6
20260507050248 13 20 0.0 0.0 0.61 0.25 0.25 90 1010.1
20260507045745 14 23 0.0 0.0 0.79 0.20 0.20 89 1010.2
20260507045241 14 22 3.2 4.8 0.79 0.15 0.15 88 1010.2
20260507044739 15 25 0.0 0.0 0.43 0.08 0.08 87 1009.9
20260507044235 15 20 1.6 1.6 0.13 0.03 0.03 86 1009.9
20260507043731 15 19 1.6 3.2 0.00 0.00 0.00 85 1009.4
20260507043228 15 26 0.0 0.0 0.00 0.00 0.00 84 1009.7
20260507042725 15 57 0.0 1.6 0.00 0.00 0.00 84 1009.7
20260507042226 15 20 0.0 1.6 0.00 0.00 0.00 82 1009.7
20260507041724 16 19 1.6 1.6 0.00 0.00 0.00 81 1009.6
20260507041220 16 34 1.6 1.6 0.00 0.00 0.00 80 1009.6
20260507040717 16 21 3.2 4.8 0.00 0.00 0.00 80 1009.7
20260507040213 16 351 1.6 1.6 0.00 0.00 0.00 80 1009.2
20260507035709 16 24 0.0 0.0 0.00 0.36 0.36 80 1009.0
20260507035205 16 26 0.0 0.0 0.00 0.36 0.36 80 1008.7
20260507034702 16 30 0.0 0.0 0.00 0.36 0.36 79 1008.7
20260507034159 16 15 3.2 4.8 0.00 0.36 0.36 79 1009.1
20260507033658 17 24 0.0 0.0 0.00 0.36 0.36 78 1008.8
20260507033155 17 15 3.2 4.8 0.00 0.36 0.36 77 1009.0
20260507032652 17 16 3.2 3.2 0.00 0.36 0.36 77 1009.2
20260507032148 17 351 3.2 3.2 0.00 0.36 0.36 77 1008.9
20260507031645 17 345 3.2 4.8 0.00 0.36 0.36 77 1008.8
20260507031141 17 13 0.0 1.6 0.00 0.36 0.36 77 1009.0
20260507030638 17 17 0.0 1.6 0.00 0.36 0.36 77 1008.9
20260507030136 17 355 1.6 3.2 0.00 0.36 0.36 77 1008.7
20260507025633 17 18 1.6 1.6 0.00 0.36 0.36 77 1008.6
20260507025130 17 48 1.6 3.2 0.00 0.36 0.36 77 1008.5
20260507024628 17 17 0.0 1.6 0.00 0.36 0.36 77 1008.6
20260507024125 17 24 1.6 1.6 0.00 0.36 0.36 77 1008.7
20260507023620 17 15 1.6 1.6 0.00 0.36 0.36 77 1008.6
20260507023118 17 14 1.6 3.2 0.00 0.36 0.36 77 1008.5
20260507022614 17 13 1.6 1.6 0.00 0.36 0.36 77 1008.4
20260507022110 17 22 1.6 1.6 0.00 0.36 0.36 77 1008.6
20260507021606 17 7 3.2 3.2 0.00 0.36 0.36 77 1008.4
20260507021102 18 27 0.0 0.0 0.00 0.36 0.36 77 1008.6
20260507020601 18 49 3.2 4.8 0.00 0.36 0.36 78 1008.8
20260507020056 18 32 0.0 0.0 0.00 0.36 0.36 79 1008.5
20260507015555 18 22 0.0 1.6 0.00 0.36 0.36 80 1008.4
20260507015052 18 7 6.4 6.4 0.00 0.36 0.36 81 1008.1
20260507014549 18 21 1.6 3.2 0.00 0.36 0.36 82 1008.0
20260507014044 18 23 0.0 1.6 0.00 0.36 0.36 82 1008.3
20260507013542 18 16 1.6 1.6 0.00 0.36 0.36 83 1008.4
20260507013039 18 21 1.6 1.6 0.00 0.36 0.36 83 1008.4
20260507012536 18 19 0.0 0.0 0.00 0.36 0.36 84 1008.4
20260507012032 18 31 0.0 1.6 0.00 0.36 0.36 84 1008.4
20260507011530 18 22 0.0 0.0 0.00 0.36 0.36 86 1008.3
20260507011025 18 20 1.6 1.6 0.00 0.36 0.36 89 1008.4
20260507010520 18 8 3.2 4.8 0.00 0.36 0.36 90 1008.5
20260507010017 18 16 1.6 1.6 0.00 0.36 0.36 89 1008.2
20260507005515 18 34 0.0 0.0 0.00 0.36 0.36 89 1008.0
20260507005011 18 34 0.0 0.0 0.00 0.36 0.36 89 1007.9
20260507004508 18 34 0.0 0.0 0.00 0.36 0.36 88 1008.1
20260507004005 18 34 0.0 0.0 0.00 0.36 0.36 88 1008.0
20260507003500 18 34 0.0 0.0 0.00 0.36 0.36 88 1008.0
20260507002955 19 34 0.0 0.0 0.00 0.36 0.36 87 1007.8
20260507002452 19 34 0.0 0.0 0.00 0.36 0.36 87 1008.0
20260507001949 19 36 0.0 0.0 0.00 0.36 0.36 87 1007.8
20260507001446 19 36 0.0 0.0 0.00 0.36 0.36 86 1007.6
20260507000943 19 36 0.0 0.0 0.00 0.36 0.36 84 1007.8
20260507000438 19 36 0.0 0.0 0.00 0.36 0.36 84 1007.7
20260506235934 20 37 0.0 1.6 0.00 0.36 0.36 84 1007.5
20260506235432 20 37 0.0 0.0 0.00 0.36 0.36 84 1007.5
20260506234922 20 41 0.0 0.0 0.00 0.36 0.36 80 1007.3
20260506234420 20 46 1.6 1.6 0.00 0.36 0.36 80 1007.3
20260506233918 20 40 0.0 0.0 0.00 0.36 0.36 81 1007.3
20260506233414 20 40 0.0 0.0 0.00 0.36 0.36 81 1007.4
20260506232910 20 40 0.0 1.6 0.00 0.36 0.36 82 1007.3
20260506232406 20 37 0.0 1.6 0.00 0.36 0.36 80 1007.0
20260506231902 20 42 0.0 0.0 0.00 0.36 0.36 81 1007.1
20260506231400 20 38 0.0 0.0 0.00 0.36 0.36 80 1006.9
20260506230857 21 38 0.0 0.0 0.00 0.36 0.36 79 1007.0
20260506230354 21 39 0.0 0.0 0.00 0.36 0.36 80 1007.2
20260506225850 21 44 1.6 1.6 0.00 0.36 0.36 75 1007.1
20260506225348 21 24 0.0 0.0 0.00 0.36 0.36 78 1007.0
20260506224844 21 23 0.0 0.0 0.00 0.36 0.36 77 1006.9
20260506224342 21 25 0.0 0.0 0.00 0.36 0.36 78 1006.8
20260506223838 21 23 0.0 0.0 0.00 0.36 0.36 76 1006.9
20260506223333 20 29 0.0 0.0 0.00 0.36 0.36 77 1006.9
20260506222831 20 34 0.0 0.0 0.00 0.36 0.36 78 1007.3
20260506222326 20 58 3.2 3.2 0.00 0.36 0.36 77 1007.1
20260506221824 20 35 0.0 1.6 0.00 0.36 0.36 77 1007.0
20260506221321 20 36 0.0 0.0 0.00 0.36 0.36 76 1007.2
20260506220819 21 39 1.6 3.2 0.00 0.36 0.36 77 1007.1
20260506220319 21 37 1.6 1.6 0.00 0.36 0.36 77 1007.1
20260506215816 21 31 0.0 0.0 0.00 0.36 0.36 75 1007.0
20260506215312 21 50 0.0 1.6 0.00 0.36 0.36 74 1007.0
20260506214808 21 91 6.4 6.4 0.00 0.36 0.36 73 1007.0
20260506214305 21 26 0.0 0.0 0.00 0.36 0.36 74 1006.8
20260506213803 21 23 0.0 1.6 0.00 0.36 0.36 74 1006.9
20260506213300 21 49 0.0 1.6 0.00 0.36 0.36 74 1006.8
20260506212757 21 41 1.6 3.2 0.00 0.36 0.36 73 1006.8
20260506212253 21 84 1.6 3.2 0.00 0.36 0.36 73 1006.7
20260506211748 21 72 4.8 4.8 0.00 0.36 0.36 72 1006.7
20260506211245 21 42 1.6 1.6 0.00 0.36 0.36 72 1006.8
20260506210742 21 1 4.8 6.4 0.00 0.36 0.36 74 1006.6
20260506210239 21 37 1.6 3.2 0.00 0.36 0.36 74 1006.6
20260506205736 21 97 4.8 4.8 0.00 0.36 0.36 73 1006.6
20260506205231 21 71 1.6 3.2 0.00 0.36 0.36 72 1006.5
20260506204729 21 59 1.6 3.2 0.00 0.36 0.36 71 1006.5
20260506204226 21 35 1.6 1.6 0.00 0.36 0.36 72 1006.3
20260506203724 22 136 6.4 9.7 0.00 0.36 0.36 69 1006.5
20260506203221 22 35 1.6 1.6 0.00 0.36 0.36 69 1006.5
20260506202719 22 32 0.0 1.6 0.00 0.36 0.36 72 1006.6
20260506202215 22 16 1.6 3.2 0.00 0.36 0.36 69 1006.5
20260506201712 22 56 3.2 4.8 0.00 0.36 0.36 69 1006.3
20260506201208 22 191 3.2 6.4 0.00 0.36 0.36 67 1006.5
20260506200705 23 358 6.4 9.7 0.00 0.36 0.36 66 1006.4
20260506200202 23 278 3.2 4.8 0.00 0.36 0.36 67 1006.4
20260506195658 23 67 1.6 3.2 0.00 0.36 0.36 67 1006.4
20260506195155 23 125 6.4 6.4 0.00 0.36 0.36 67 1006.5
20260506194652 22 326 0.0 1.6 0.00 0.36 0.36 68 1006.5
20260506194148 22 333 6.4 11.3 0.00 0.36 0.36 66 1006.4
20260506193646 22 38 3.2 3.2 0.00 0.36 0.36 66 1006.6
20260506193143 22 18 1.6 3.2 0.00 0.36 0.36 68 1006.5
20260506192640 22 30 1.6 3.2 0.00 0.36 0.36 72 1006.4
20260506192136 22 359 3.2 4.8 0.00 0.36 0.36 71 1006.6
20260506191633 21 73 3.2 3.2 0.00 0.36 0.36 72 1006.7
20260506191129 21 79 6.4 14.5 0.00 0.36 0.36 71 1006.8
20260506190626 21 17 3.2 4.8 0.00 0.36 0.36 75 1006.9
20260506190123 21 325 6.4 9.7 0.00 0.36 0.36 75 1006.8
20260506185620 20 356 3.2 3.2 0.00 0.36 0.36 76 1006.9
20260506185116 20 269 4.8 6.4 0.00 0.36 0.36 76 1007.2
20260506184614 20 356 3.2 4.8 0.00 0.36 0.36 75 1007.4
20260506184111 20 38 3.2 4.8 0.00 0.36 0.36 79 1007.3
20260506183608 20 3 1.6 3.2 0.00 0.36 0.36 80 1007.1
20260506183103 19 334 0.0 1.6 0.00 0.36 0.36 78 1007.3
20260506182601 19 83 6.4 6.4 0.00 0.36 0.36 79 1007.2
20260506182058 19 12 1.6 3.2 0.00 0.36 0.36 79 1007.2
20260506181556 19 50 3.2 3.2 0.00 0.36 0.36 79 1007.3
20260506181053 19 5 8.0 11.3 0.00 0.36 0.36 79 1007.5
20260506180549 19 101 8.0 11.3 0.00 0.36 0.36 79 1007.5
20260506180046 19 29 4.8 4.8 0.00 0.36 0.36 78 1007.5
20260506175542 19 5 1.6 1.6 0.00 0.36 0.36 79 1007.5
20260506175039 19 8 3.2 4.8 0.00 0.36 0.36 79 1007.7
20260506174538 19 111 3.2 4.8 0.00 0.36 0.36 81 1007.4
20260506174033 19 71 3.2 3.2 0.00 0.36 0.36 80 1007.5
20260506173531 18 228 8.0 9.7 0.00 0.36 0.36 83 1007.5
20260506173028 18 339 4.8 11.3 0.00 0.36 0.36 82 1007.5
20260506172525 18 269 4.8 6.4 0.00 0.36 0.36 82 1007.5
20260506172021 18 68 4.8 6.4 0.00 0.36 0.36 82 1007.6
20260506171519 18 24 0.0 0.0 0.00 0.36 0.36 82 1007.6
20260506171017 18 13 3.2 3.2 0.00 0.36 0.36 83 1007.6
20260506170514 18 6 3.2 3.2 0.00 0.36 0.36 84 1007.6
20260506170011 18 209 9.7 12.9 0.00 0.36 0.36 84 1007.7
20260506165510 18 84 3.2 4.8 0.00 0.36 0.36 84 1007.7
20260506165005 18 42 3.2 3.2 0.00 0.36 0.36 84 1007.9
20260506164502 17 32 1.6 1.6 0.00 0.36 0.36 85 1007.8
20260506164000 17 54 8.0 12.9 0.00 0.36 0.36 84 1008.0
20260506163455 17 105 12.9 16.1 0.00 0.36 0.36 86 1007.9
20260506162950 17 45 6.4 9.7 0.00 0.36 0.36 86 1007.9
20260506162448 17 113 3.2 3.2 0.00 0.36 0.36 87 1008.0
20260506161945 17 29 6.4 9.7 0.00 0.36 0.36 86 1008.1
20260506161443 17 72 4.8 9.7 0.00 0.36 0.36 86 1008.0
20260506160934 17 42 6.4 9.7 0.00 0.36 0.36 88 1008.1
20260506160431 17 41 3.2 3.2 0.00 0.36 0.36 88 1008.1
20260506155929 17 33 3.2 3.2 0.00 0.36 0.36 88 1008.0
20260506155427 17 57 11.3 17.7 0.00 0.36 0.36 88 1008.1
20260506153553 16 346 3.2 3.2 0.00 0.36 0.36 89 1008.4
20260506153051 16 120 3.2 4.8 0.00 0.36 0.36 89 1008.2
20260506152548 16 67 1.6 3.2 0.00 0.36 0.36 90 1008.2
20260506152046 16 63 9.7 12.9 0.00 0.36 0.36 90 1008.3
20260506151544 16 93 4.8 6.4 0.00 0.36 0.36 90 1008.5
20260506151041 16 6 0.0 1.6 0.00 0.36 0.36 90 1008.6
20260506150537 16 74 3.2 4.8 0.00 0.36 0.36 91 1008.8
20260506150034 16 63 1.6 3.2 0.00 0.36 0.36 91 1008.8
20260506145531 16 72 3.2 4.8 0.18 0.36 0.36 91 1008.7
20260506145028 16 42 1.6 1.6 0.18 0.36 0.36 91 1008.8
20260506144525 16 31 0.0 0.0 0.00 0.33 0.33 91 1008.7
20260506144022 16 13 3.2 6.4 0.30 0.33 0.33 91 1009.0
20260506143520 16 103 6.4 9.7 0.30 0.33 0.33 90 1009.0
20260506143018 16 74 12.9 17.7 0.00 0.28 0.28 90 1008.8
20260506142515 16 108 12.9 14.5 0.30 0.28 0.28 90 1008.8
20260506142013 16 41 4.8 6.4 0.48 0.28 0.28 90 1008.6
20260506141511 16 42 0.0 1.6 0.30 0.23 0.23 90 1008.6
20260506141009 16 69 3.2 4.8 0.13 0.20 0.20 90 1008.6
20260506140507 16 134 6.4 6.4 0.30 0.20 0.20 90 1008.8
20260506140004 16 338 3.2 3.2 0.18 0.18 0.18 90 1008.8
20260506135500 16 31 1.6 3.2 0.13 0.15 0.15 89 1008.9
20260506134956 16 80 4.8 11.3 0.30 0.15 0.15 89 1009.0
20260506134453 16 77 3.2 4.8 0.18 0.13 0.13 89 1009.1
20260506133949 16 52 1.6 1.6 0.18 0.13 0.13 89 1009.4
20260506133446 16 50 1.6 3.2 0.00 0.10 0.10 89 1009.4
20260506132943 16 104 6.4 6.4 0.13 0.10 0.10 88 1009.3
20260506132440 17 49 3.2 3.2 0.30 0.10 0.10 86 1009.0
20260506131937 17 56 1.6 1.6 0.36 0.08 0.08 86 1008.9
20260506131434 17 28 0.0 1.6 0.18 0.05 0.05 85 1008.9
20260506130931 17 15 1.6 1.6 0.00 0.03 0.03 84 1008.7
20260506130427 17 24 0.0 0.0 0.00 0.03 0.03 82 1008.7
20260506125925 17 33 0.0 0.0 0.13 0.03 0.03 82 1008.8
20260506125423 17 30 0.0 0.0 0.13 0.03 0.03 82 1008.5
20260506124922 17 40 1.6 3.2 0.00 0.00 0.00 80 1008.6
20260506124419 17 54 1.6 1.6 0.00 0.00 0.00 79 1008.5
20260506123916 17 25 1.6 1.6 0.00 0.00 0.00 79 1008.6
20260506123415 17 353 3.2 3.2 0.00 0.00 0.00 77 1008.8
20260506122911 17 73 0.0 1.6 0.00 0.00 0.00 77 1008.8
20260506122408 17 43 1.6 3.2 0.00 0.00 0.00 78 1008.9
20260506121906 18 30 3.2 3.2 0.00 0.00 0.00 76 1009.0
20260506121403 18 21 0.0 0.0 0.00 0.00 0.00 74 1009.2
20260506120859 18 61 3.2 3.2 0.00 0.00 0.00 73 1009.1
20260506120357 18 22 1.6 1.6 0.00 0.00 0.00 72 1009.3
20260506115855 18 41 3.2 3.2 0.00 0.00 0.00 71 1009.2
20260506115353 18 53 4.8 6.4 0.00 0.00 0.00 70 1009.1
20260506114850 18 70 3.2 4.8 0.00 0.00 0.00 70 1009.1
20260506114347 18 129 3.2 6.4 0.00 0.00 0.00 70 1008.9
20260506113847 18 2 1.6 3.2 0.00 0.00 0.00 69 1008.8
20260506113343 18 86 1.6 3.2 0.00 0.00 0.00 69 1008.7
20260506112840 18 353 3.2 4.8 0.00 0.00 0.00 69 1008.4
20260506112337 19 55 4.8 4.8 0.00 0.00 0.00 69 1008.5
20260506111834 19 133 6.4 9.7 0.00 0.00 0.00 68 1008.5
20260506111333 18 84 4.8 9.7 0.00 0.00 0.00 69 1008.5
20260506110830 18 66 1.6 1.6 0.00 0.00 0.00 69 1008.3
20260506110327 18 74 1.6 3.2 0.00 0.00 0.00 69 1008.5
20260506105824 18 39 1.6 3.2 0.00 0.00 0.00 69 1008.3
20260506105320 18 30 1.6 1.6 0.00 0.00 0.00 69 1008.4
20260506104818 18 33 1.6 1.6 0.00 0.00 0.00 69 1008.4
20260506104315 18 58 3.2 3.2 0.00 0.00 0.00 70 1008.2
20260506103813 18 58 3.2 3.2 0.00 0.00 0.00 69 1008.0
20260506103310 18 35 0.0 1.6 0.00 0.00 0.00 69 1008.0
20260506102808 18 140 4.8 11.3 0.00 0.00 0.00 69 1008.2
20260506102306 18 53 3.2 3.2 0.00 0.00 0.00 69 1008.0
20260506101803 18 85 1.6 3.2 0.00 0.00 0.00 69 1008.1
20260506101258 18 84 6.4 9.7 0.00 0.00 0.00 69 1007.9
20260506100756 18 94 4.8 6.4 0.00 0.00 0.00 69 1008.2
20260506100254 18 51 6.4 9.7 0.00 0.00 0.00 69 1008.1
20260506095753 18 36 0.0 1.6 0.00 0.00 0.00 68 1008.0
20260506095249 18 55 1.6 3.2 0.00 0.00 0.00 68 1008.1
20260506094746 18 39 1.6 1.6 0.00 0.00 0.00 68 1008.2
20260506094244 18 55 1.6 3.2 0.00 0.00 0.00 68 1008.2
20260506093743 18 19 3.2 4.8 0.00 0.00 0.00 68 1008.2
20260506093239 18 63 12.9 20.9 0.00 0.00 0.00 67 1008.3
20260506092737 19 76 3.2 3.2 0.00 0.00 0.00 68 1008.1
20260506092235 19 45 1.6 1.6 0.00 0.00 0.00 67 1008.2
20260506091732 19 224 6.4 9.7 0.00 0.00 0.00 67 1008.2
20260506091229 19 40 1.6 3.2 0.00 0.00 0.00 67 1008.1
20260506090727 19 73 4.8 6.4 0.00 0.00 0.00 66 1008.3
20260506090224 19 20 1.6 1.6 0.00 0.00 0.00 65 1008.2